Weather in Krasnoe

Ukraine / Lviv District     48°56′39″N   23°09′49″E
temp.,
°C
wind,
m/s
gust,
m/s
humid.,
%
clouds,
%
prec.,
mm/h
press.,
hPa
HPBL,
m
4 march, thu
thu423:00−1ssw349868 0.0 102599
02:00+1ssw4129748 0.0 1024364
05:00+1ssw3139662 0.0 1021463
08:000ssw3119662 0.0 1020389
11:00+4ssw4108292 0.0 1017518
14:00+6sw597646 0.0 1015629
17:00+4sw310869 0.0 1014505
20:00+3sw399251 0.1 1014365
5 march, fri
fri523:00+2sw2699100 2.1 1013249
02:00+2ssw2299100 5.1 101359
05:00+1ssw2299100 0.4 101250
08:00+2wsw1699100 1.9 1012391
11:00−1n3594100 3.6 1014442
14:00−1nne4795100 5.5 1015557
17:00−3nne5995100 2.9 1017636
20:00−5nne4992100 4.1 1021717
6 march, sat
sat623:00−7nne31090100 0.0 1024400
02:00−9n239351 0.0 102695
05:00−9nw12870 0.0 102722
08:00−7wnw12883 0.0 102987
11:00−3nnw367146 0.1 10301226
14:00−3nnw466973 0.5 10301317
17:00−4nnw3575100 0.2 1031992
20:00−7wnw119098 0.3 103221
7 march, sun
sun723:00−8sw119011 0.0 103221
02:00−8ssw22906 0.0 103133
05:00−8ssw310870 0.0 1029348
08:00−6sw413790 0.0 1028658
11:00−2sw611670 0.0 1026772
14:00−1sw711661 0.0 1023827
17:00−1sw6116817 0.0 1020756
20:00−4ssw411799 0.0 1021416
8 march, mon
mon823:00−4ssw411810 0.0 1021379
02:00−6ssw289012 0.0 1020250
05:00−6ssw229530 0.0 101865
08:00−5ssw249158 0.0 1018196
11:00−1sw357180 0.0 1017736
14:00+1w356590 0.1 10161247
17:00−1wnw3581100 0.3 1016713
20:00−4wsw119598 0.4 101922